Location: Invercargill
(46.4000°S, 168.3500°E)
Time: 19:44:30
(UTC+12:00)

Cosmos 1461 - Pass Details

Date: 14 May 2021
Orbit: 509 x 654 km, 65.0° (Epoch: 14 June)

Event Time Altitude Azimuth Distance (km) Brightness Sun altitude
Rises 18:41:49 0° 212° (SSW) 2,776 6.7 -13.2°
Reaches altitude 10° 18:44:09 10° 203° (SSW) 1,899 5.7 -13.6°
Maximum altitude 18:48:08 37° 134° (SE) 939 3.6 -14.3°
Enters shadow 18:50:15 23° 83° (E) 1,298 4.1 -14.7°
